Regional Weather Roundup
Issued by NWS

Home | Current Version | Previous Version | Text Only | Print | Product List | Glossary On
Versions: 1 2 3 4 5 6 7 8 9 10 11 12 13 14 15 16 17 18 19 20 21 22 23 24 25 26 27 28 29 30 31 32 33 34 35 36 37 38 39 40 41 42 43 44 45 46 47 48 49 50
726
ASUS44 KJAN 281510
RWRMS

MISSISSIPPI HOURLY WEATHER ROUNDUP
NATIONAL WEATHER SERVICE JACKSON MS
1000 AM CDT FRI JUL 28 2017

NOTE: "FAIR: INDICATES FEW OR NO CLOUDS BELOW 12,000 FEET WITH NO
SIGNIFICANT WEATHER AND/OR OBSTRUCTIONS TO VISIBILITY.

MSZ001>002-007>008-010>013-018>021-025>028-034>036-281600-
NORTHWEST MISSISSIPPI

CITY           SKY/WX    TMP DP  RH WIND       PRES   REMARKS
BATESVILLE     RAIN      76  73  90 W10G21    29.94R
CLARKSDALE       N/A     77  77 100 CALM      29.94S FOG
CLEVELAND      PTSUNNY   82  80  95 W3        29.94S HX  92
GREENWOOD      CLOUDY    82  76  81 SW7       29.94S
GREENVILLE     PTSUNNY   81  75  82 SW6       29.94R
OLIVE BRANCH   LGT RAIN N/A N/A N/A MISG      29.90R
OXFORD         LGT RAIN  73  72  94 W10G22    29.95R
TUNICA         DRIZZLE   73  73 100 SW12      29.91F
WINONA         CLOUDY    80  76  87 W7        29.95S
$$

MSZ003>006-009-014>017-022>024-029>033-037>039-281600-
NORTHEAST MISSISSIPPI

CITY           SKY/WX    TMP DP  RH WIND       PRES   REMARKS
COLUMBUS AFB   CLOUDY    81  77  89 SW8       29.92R
CORINTH        PTSUNNY   79  75  89 SW8       29.88F
GOLDN TRIANGLE CLOUDY    81  70  69 SW8       29.90R
STARKVILLE     CLOUDY    79  73  83 SW3       29.95S
TUPELO         PTSUNNY   83  75  77 SW7       29.91R HX  90
$$

MSZ040-058-281600-
CENTRAL MISSISSIPPI

CITY           SKY/WX    TMP DP  RH WIND       PRES   REMARKS
JACKSON INTL   CLOUDY    84  75  74 W9        29.99R HX  92
JACKSON HAWKNS CLOUDY    83  76  79 W12       29.99R HX  91
MADISON        FAIR      81  73  78 W3        29.98S
MERIDIAN KEY   CLOUDY    83  75  77 SW3       29.98R HX  90
MERIDIAN NAS   CLOUDY    81  71  71 W5        29.97R
RAYMOND        FAIR      82  75  78 W8        29.98R
$$

MSZ059>079-281600-
SOUTH MISSISSIPPI

CITY           SKY/WX    TMP DP  RH WIND       PRES   REMARKS
COLUMBIA       FAIR      86  77  74 W5        30.02R HX  97
HATTIESBURG    MOSUNNY   85  76  74 W8        29.99S HX  94
LAUREL         FAIR      85  75  70 W8        29.99R HX  94
MCCOMB         SUNNY     84  75  74 NW9       30.00S HX  92
NATCHEZ        SUNNY     85  76  74 W7        30.00R HX  94
PINE BELT      MOSUNNY   85  76  74 W8        30.00S HX  94
$$

MSZ080>082-281600-
COASTAL MISSISSIPPI

CITY           SKY/WX    TMP DP  RH WIND       PRES   REMARKS
BAY ST LOUIS   SUNNY     86  77  74 W6        29.99S HX  97
BILOXI         SUNNY     88  75  66 CALM      29.97F HX  98
PASCAGOULA     MOSUNNY   88  71  57 W5        29.98S HX  94
GULFPORT       SUNNY     88  74  63 W7        29.97F HX  96
$$

LAZ007>009-015>016-023>026-281600-
NORTHEAST LOUISIANA

CITY           SKY/WX    TMP DP  RH WIND       PRES   REMARKS
BASTROP        FAIR      86  76  73 W12G20    29.97S HX  96
TALLULAH/VBURG CLOUDY    83  76  79 W6        29.97S HX  91
VIDALIA        FAIR      84  75  76 W8        29.98S HX  92
$$




USA.gov is the U.S. government's official web portal to all federal, state and local government web resources and services.